Theta_e
298 299 299 298 298 298 297 299 299 299 300 299 299 298 299 300 299 300 304 304 306 308 310 309 309 311 313 311 310 310 309 309
298 298 297 297 297 297 297 298 299 298 298 298 297 298 299 299 300 302 305 306 305 304 307 310 312 312 312 310 310 309 309 309
297 296 296 296 296 297 298 298 299 299 298 298 298 299 300 300 300 301 303 304 304 305 304 304 306 307 308 306 306 306 308 309
296 296 295 295 295 295 297 297 298 299 298 298 299 299 300 301 302 303 304 304 304 304 303 303 303 306 302 302 305 309 309 308
295 295 294 295 295 296 296 298 299 299 298 298 298 299 298 300 301 301 301 302 303 303 302 302 302 303 300 300 301 307 308 307
295 294 295 295 297 297 298 300 299 298 298 298 299 299 299 300 300 300 300 301 302 301 300 300 300 301 299 300 302 305 301 300
295 295 295 296 297 297 298 298 297 297 296 297 299 300 299 298 298 298 298 299 298 298 299 299 299 300 298 299 301 302 301 301
295 295 295 296 297 298 297 297 296 295 296 297 299 299 298 297 297 298 298 299 298 298 298 299 299 299 297 298 301 302 300 303
296 295 295 296 297 297 295 295 294 296 297 298 298 298 298 298 298 298 298 297 297 297 299 301 302 300 300 295 297 305 303 303
295 295 295 297 297 296 295 294 296 297 297 297 297 298 298 298 298 300 301 302 301 301 303 302 302 304 295 295 294 295 300 301
295 295 295 297 298 297 295 296 297 297 298 297 299 299 302 303 303 302 300 301 299 299 299 299 300 302 303 295 293 294 296 300
296 297 296 295 297 298 297 296 298 299 298 299 301 301 302 302 301 300 299 299 299 299 299 299 300 300 300 301 301 301 297 301
298 297 297 298 300 299 299 299 301 301 300 300 300 300 300 299 300 296 297 297 294 298 298 298 298 297 295 292 295 299 300 296
296 298 299 299 300 300 301 302 301 301 298 298 297 298 298 298 299 298 291 291 290 290 290 293 295 291 290 290 289 289 290 292
299 299 299 300 299 299 301 301 301 299 299 298 298 297 297 297 298 297 299 294 291 290 289 289 289 288 289 290 290 289 289 293
300 300 300 300 300 299 301 301 300 300 300 292 298 298 297 297 298 298 297 296 295 295 291 290 289 289 288 289 290 293 295 294
300 300 300 300 300 301 302 302 300 300 299 299 298 298 297 296 298 297 297 297 296 296 296 293 292 289 289 289 290 295 293 293
300 300 300 301 301 301 302 303 302 301 300 293 294 298 298 298 297 296 296 296 295 294 293 293 295 294 294 294 294 294 294 295
301 301 301 301 301 302 302 302 302 304 302 302 290 299 298 298 297 296 296 295 294 294 293 290 284 294 293 293 293 294 294 294
300 301 302 303 302 302 302 302 302 303 303 301 300 299 299 298 298 298 297 297 296 295 295 293 286 295 295 295 295 296 296 296
Wind_Speed
12 12 12 12 13 14 15 15 15 15 15 15 14 14 14 15 14 15 14 12 11 13 11 11 10 10 4 2 2 1 2 5
13 12 12 12 12 12 14 14 15 14 13 12 12 11 12 13 13 14 13 12 11 10 13 13 7 7 2 3 4 6 7 7
12 12 11 12 12 13 14 14 15 13 12 11 9 10 12 12 12 12 12 9 8 7 9 9 10 8 6 7 5 5 8 9
12 12 12 11 13 13 13 13 13 12 12 12 10 10 11 11 11 11 9 9 9 9 9 9 9 7 10 11 9 8 8 7
12 11 10 10 11 12 11 13 11 13 12 11 10 9 10 11 10 10 10 10 10 10 10 10 10 9 13 10 8 5 5 6
11 9 9 9 10 11 12 12 12 12 11 11 10 9 10 10 10 9 9 8 10 9 9 10 9 8 12 9 6 10 12 9
8 8 8 9 10 10 11 10 10 10 10 11 11 11 8 9 10 11 9 8 8 8 7 9 9 10 17 15 14 10 9 9
8 9 8 8 9 8 9 10 9 10 10 10 10 9 9 10 10 9 7 7 8 6 8 8 13 11 17 14 9 6 6 5
8 7 7 8 7 8 7 8 10 9 9 9 9 10 9 9 8 7 7 6 5 6 6 7 9 10 10 10 9 6 5 5
7 6 7 7 6 6 7 7 7 7 8 8 9 9 7 6 6 7 9 7 8 8 8 7 7 7 11 11 9 7 5 7
7 7 7 8 8 7 7 8 7 7 8 9 9 8 9 9 9 10 8 8 8 8 7 8 8 7 7 8 13 11 12 9
6 7 11 10 10 10 9 8 7 9 10 10 9 9 8 8 7 8 8 8 8 7 8 8 7 8 8 7 7 6 5 6
6 8 9 8 9 10 10 9 10 10 9 8 8 7 8 7 8 9 7 9 6 6 7 7 7 7 8 8 11 7 7 5
6 7 7 7 7 7 7 8 7 7 8 7 7 6 6 6 6 7 11 11 15 15 14 10 8 8 5 13 13 13 11 10
5 6 7 7 7 8 6 6 6 7 7 6 5 5 5 5 5 6 5 5 13 15 12 15 14 11 12 11 10 11 14 9
4 5 7 7 9 9 7 5 5 6 5 4 5 5 4 4 5 5 5 6 6 7 11 13 14 13 14 14 12 6 9 9
4 4 6 7 8 8 6 5 4 4 5 6 5 4 5 4 5 5 5 6 6 7 7 7 7 6 8 10 9 9 9 9
4 4 5 6 7 7 7 6 4 1 3 4 3 4 4 5 5 6 6 7 7 8 8 8 7 5 8 9 9 8 8 8
3 3 3 4 5 6 5 5 4 1 2 3 3 4 4 5 5 6 6 6 6 7 7 7 7 6 7 8 7 8 8 8
4 3 1 3 4 6 5 5 3 1 1 2 3 3 3 4 4 4 5 5 6 6 5 6 5 6 7 7 8 8 8 8
Wind_Direction
348 350 355 352 343 344 340 337 334 331 327 322 320 321 319 322 320 315 317 313 317 334 318 298 291 285 271 97 111 159 224 261
350 352 349 345 343 338 336 334 334 329 318 313 313 315 314 320 317 314 325 323 332 328 341 349 308 287 225 50 327 318 313 290
350 349 346 345 340 342 337 335 335 330 327 326 322 319 320 322 320 324 323 331 335 341 348 348 356 351 4 341 317 298 284 300
349 345 347 343 342 338 331 331 331 334 336 342 339 334 332 333 338 343 352 358 1 1 1 354 350 343 1 340 329 300 294 301
344 347 341 335 335 330 331 332 336 340 347 347 343 339 340 346 353 357 360 3 359 7 3 356 356 354 338 321 303 285 306 17
338 338 330 326 332 335 335 343 349 346 345 340 334 332 343 355 355 354 3 8 12 17 12 13 8 4 357 7 45 73 80 78
332 329 326 327 336 342 338 354 355 353 351 351 354 11 2 16 19 20 18 19 26 28 25 20 20 29 33 52 75 76 72 67
337 335 329 333 341 339 340 354 356 358 356 356 3 12 21 27 21 20 19 25 33 31 31 29 31 35 27 47 62 74 89 99
343 337 333 334 337 343 357 1 8 360 1 13 21 20 26 24 27 28 28 26 19 11 22 36 46 44 50 24 28 66 36 35
347 347 345 360 2 4 12 15 3 9 20 26 31 30 26 19 29 43 42 33 33 23 35 45 45 36 36 28 13 13 12 60
2 9 34 21 23 24 23 19 18 28 41 46 47 49 63 59 46 34 35 32 28 22 23 31 32 32 43 45 52 44 37 64
41 48 52 52 44 39 37 31 36 62 69 64 60 55 46 37 33 26 23 22 19 25 38 40 47 46 34 40 51 69 80 60
68 69 62 56 44 36 32 53 73 68 59 43 35 29 23 25 40 24 21 32 5 10 34 27 23 44 29 6 36 33 37 25
84 62 42 40 44 52 31 25 41 48 51 38 25 25 26 40 61 67 49 50 52 46 37 28 72 40 22 47 42 40 21 1
83 50 44 51 57 58 46 34 38 45 40 24 23 25 34 33 42 54 66 89 78 53 43 43 42 34 32 24 10 55 32 14
90 60 54 59 63 53 39 40 47 45 32 5 10 27 38 43 38 44 46 46 39 42 60 47 35 31 36 27 6 39 45 38
120 72 59 58 60 49 34 34 39 32 21 18 18 42 45 35 35 38 37 39 36 38 40 60 39 36 44 37 14 42 34 30
168 79 46 39 41 19 9 5 357 342 15 23 12 47 48 44 40 37 40 42 44 42 38 26 22 32 39 38 38 31 29 25
166 118 51 14 9 354 355 358 338 323 352 44 31 69 53 48 46 45 44 46 49 49 49 38 333 25 35 32 27 23 18 12
189 185 211 345 340 335 341 353 349 48 71 62 68 55 56 54 53 45 43 46 46 47 50 58 322 36 33 30 27 24 21 18